Location: Doux
(49.5045°N, 4.4321°E)
Time: 13:37:08
(UTC+00:00)

Cosmos 1825 - Pass Details

Date: 23 May 2024
Orbit: 439 x 443 km, 82.5° (Epoch: 18 June)

Event Time Altitude Azimuth Distance (km) Brightness Sun altitude
Exits shadow 02:35:16 - 168° (SSE) 2,220 5.1 -9.7°
Reaches altitude 10° 02:36:54 10° 161° (SSE) 1,563 4.4 -9.5°
Maximum altitude 02:40:03 36° 93° (E) 721 3.3 -9.2°
Drops below altitude 10° 02:43:15 10° 25° (NNE) 1,581 6.1 -8.8°
Sets 02:45:25 0° 17° (NNE) 2,460 6.9 -8.6°
